Regional Weather Roundup
Issued by NWS Pendleton, OR

Home | Current Version | Previous Version | Text Only | Print | Product List | Glossary On
Versions: 1 2 3 4 5 6 7 8 9 10 11 12 13 14 15 16 17 18 19 20 21 22 23 24 25 26 27 28 29 30 31 32 33 34 35 36 37 38 39 40 41 42 43 44 45 46 47 48 49 50
000
ASUS46 KPDT 272304
RWRPDT
PENDLETON REGIONAL WEATHER ROUNDUP
NATIONAL WEATHER SERVICE PENDLETON OREGON
400 PM PDT WED MAY 27 2015

NOTE: FAIR INDICATES FEW OR NO CLOUDS BELOW 12,000 FEET WITH NO
SIGNIFICANT WEATHER AND/OR OBSTRUCTIONS TO VISIBILITY.

# INDICATES UNOFFICIAL STATION AND DATA

WAZ520-280010-
EAST SLOPES OF WASHINGTON CASCADES

CITY            SKY/WX      TMP DP  RH  WIND    PRES   REMARKS
#BULLFROG       N/A         77  48  36  W6      N/A
#BULLFROG 2SW   N/A         73  49  43  N8      27.58F
#BUMPING DAM    N/A         69  N/A N/A N2      N/A
#CLE ELUM HS    N/A         75  46  36  W6      29.91F
#CLE ELUM LAKE  N/A         73  50  44  W1      29.91S
#CLIFFDEL 2NW   N/A         76  44  32  W2      N/A
#EASTON DOT     N/A         73  23  15  N7      N/A
#ELK HTS DOT    N/A         77  77  100 CALM    N/A
#GLENWOOD       N/A         74  55  51  CALM    29.93F
#NELSON         N/A         76  51  42  NW1     29.91F
#NELSON 3SW     N/A         72  49  44  NE1     30.11S
#NILE           N/A         75  50  41  CALM    29.20F
#PEOH POINT     N/A         73  43  34  CALM    N/A
#RONALD 2NW     N/A         75  52  45  W2      29.87S
#SNOWDEN        N/A         73  31  21  CALM    N/A
#TEANAWAY 4NE   N/A         76  51  42  S2      N/A
#TROUT LAKE 1NE N/A         74  54  50  SW8     29.93S
$$

WAZ521-280010-
SIMCOE HIGHLANDS

CITY            SKY/WX      TMP DP  RH  WIND    PRES   REMARKS
#BICKLETON HS   N/A         67  37  33  NE6     N/A
#SATUS PASS DOT N/A         69  38  32  S1      N/A
#CENTERVILLE 4W N/A         76  49  39  NE7     29.72F
#CENTERVILLE 1SWN/A         75  49  40  W7      29.88F
#GOLDENDALE     N/A         76  47  36  N3      N/A
#GOODNOE HILLS  N/A         83  50  32  S2      N/A
#LYLE 6NE       N/A         77  49  37  SW5     29.90F
$$

WAZ026-280010-
KITTITAS VALLEY

CITY            SKY/WX      TMP DP  RH  WIND    PRES   REMARKS
ELLENSBURG AP   MOCLDY      82  47  29  VRB3    29.95F
YTC-OPS AREA    N/A         72  41  33  SW8     29.99F
#ELLENSBURG CWU N/A         81  47  30  CALM    29.86F
#ELLENSBURG 3NE N/A         75  52  45  CALM    29.96F
#ELLENSBURG 1E  N/A         82  47  29  CALM    N/A
#KITTITAS 4N    N/A         78  52  40  NW2     28.27F
#KITTITAS 3S    N/A         76  49  39  CALM    29.89F
#MANASTASH RDG  N/A         76  76  100 NE6     N/A
#ROCKY CYN DOT  N/A         77  48  36  E7      N/A
#RYEGRASS DOT   N/A         72  43  35  E6      N/A
#THORP 6N       N/A         73  49  43  NE2     29.93F
$$

WAZ027-280010-
YAKIMA VALLEY

CITY            SKY/WX      TMP DP  RH  WIND    PRES   REMARKS
SUNNYSIDE AP    PTCLDY      79  49  35  W7      29.93F
YAKIMA AIRPORT  PTCLDY      82  47  29  S5      29.94F
#DONALD 2NE     N/A         87  33  15  S1      28.79F
#GRANDVIEW      N/A         77  45  32  W1      29.92F
#MABTON         N/A         78  50  38  W2      29.93F
#NACHES 2SW     N/A         80  52  38  SE1     30.01S
#PARKER DOT     N/A         80  46  30  E1      N/A
#SELAH 8E       N/A         75  42  31  W2      N/A
#TERRACE HTS    N/A         81  49  33  S5      29.86F
#TOPPENISH      N/A         79  49  35  SE2     29.82F
#I82 S UMTANUM RN/A         78  46  32  W6      N/A
#UNION GAP DOT  N/A         81  45  28  CALM    N/A
#WAPATO 4NE     N/A         87  33  15  S1      28.79F
#WEST VALLEY    N/A         78  47  34  S1      29.88F
#W YAKIMA       N/A         78  48  35  S3      29.89F
#WHITE SWAN 5E  N/A         79  50  36  N2      29.90F
#WILEY CITY 3W  N/A         81  40  23  CALM    29.92F
#ZILLAH DOT     N/A         78  44  30  NE5     N/A
$$

WAZ028-280010-
LOWER COLUMBIA BASIN...WASHINGTON

CITY            SKY/WX      TMP DP  RH  WIND    PRES   REMARKS
PASCO           SUNNY       83  50  32  MISG    29.93F
RICHLAND AWOS   PTCLDY      81  50  34  E3      29.93F
#BASIN CITY 5SW N/A         82  57  43  CALM    29.93F
#BENTON CITY    N/A         77  49  37  N2      29.83S
#CONNELL 5N     N/A         74  51  44  NE12    29.92S
#CONNELL 5NW    N/A         77  51  40  CALM    29.88F
#ELTOPIA 6NW    N/A         79  52  39  N2      28.92F
#KAHLOTUS       N/A         71  50  47  NE3     29.94S
#KENNEWICK      N/A         73  49  43  N8      27.58F
#KENNEWICK 3S   N/A         81  50  34  CALM    29.93S
#PATERSON       N/A         79  53  41  S5      29.90F
#PROSSER DOT    N/A         81  46  29  S1      N/A
#PROSSER        N/A         80  45  29  NE2     29.91F
#SAGEMOOR 2W    N/A         79  53  41  CALM    29.77F
#TOUCHET 2S     N/A         76  60  58  E7      29.91S
#WEST PASCO     N/A         79  55  44  W2      29.93S
$$

WAZ029-280010-
FOOTHILLS OF THE BLUES...WASHINGTON

CITY            SKY/WX      TMP DP  RH  WIND    PRES   REMARKS
WALLA WALLA AP  MOCLDY      71  52  51  E9      29.97F
#DAYTON SCHOOL  N/A         67  48  50  NE1     30.00F
#LOWDEN 2SE     N/A         72  56  57  E12     29.91S
#PLEASANT VIEW 1N/A         72  53  51  S3      29.97F
#PRESCOTT       N/A         66  59  78  CALM    29.94F
#SUDBURY        N/A         72  N/A N/A CALM    N/A
#WHITMAN COLLEGEN/A         69  53  57  E5      29.98F
#WAITSBURG 8N   N/A         76  29  18  S2      29.79F
#WALLA WALLA U  N/A         70  52  53  CALM    29.93F
#WHITMAN MISSIONN/A         70  57  63  CALM    29.95S
$$

WAZ030-280010-
BLUE MOUNTAINS...WASHINGTON

CITY            SKY/WX      TMP DP  RH  WIND    PRES   REMARKS
#DIXIE 5SE      N/A         62  47  58  CALM    29.96F
$$

ORZ009-041-WAZ024-280010-
COLUMBIA RIVER GORGE

CITY            SKY/WX      TMP DP  RH  WIND    PRES   REMARKS
HOOD RIVER AP   PTCLDY      79  52  39  NW8     29.94F
THE DALLES AP   SUNNY       85  41  21  N8      29.90F
#ARLINGTON AIRPON/A         79  46  31  W3      29.81S
#CELILO DOT     N/A         87  52  30  NW1     N/A
#MARYHILL       N/A         80  44  28  CALM    N/A
#MOSIER 1S      N/A         78  40  26  NW6     29.91F
#MURDOCK        N/A         81  49  33  W9      29.92F
#RUFUS DOT      N/A         84  53  34  NE1     N/A

$$

ORZ510-280010-
NORTH CENTRAL OREGON

CITY            SKY/WX      TMP DP  RH  WIND    PRES   REMARKS
#CHENOWITH 1W   N/A         75  40  28  NW5     N/A
#COW CYN RST AREN/A         71  N/A N/A N1      N/A
#DUFUR 9E       N/A         72  45  38  W1      29.97F
#GRASS VALLEY 1SN/A         76  46  34  N2      29.95S
#KENT DOT       N/A         75  38  26  N8      N/A
#MAUPIN SCHOOL  N/A         81  48  32  CALM    29.94F
#MORO SCHOOL    N/A         76  51  42  W6      29.97F
#SHANIKO 5WSW   N/A         72  35  26  NW8     N/A
#SHANIKO 4NW    N/A         68  37  32  W2      30.03F
#TYGH VALLEY 2NEN/A         79  50  36  S5      29.90F
#WAPANITIA AIRPON/A         77  41  28  E6      29.93F
#WASCO DOT      N/A         80  45  29  NW8     N/A
#WASCO 5NE      N/A         79  50  36  CALM    29.91F
$$

ORZ511-280010-
CENTRAL OREGON

CITY            SKY/WX      TMP DP  RH  WIND    PRES   REMARKS
BEND AIRPORT    SUNNY       72  36  27  W5      30.01F
MADRAS AIRPORT  SUNNY       75  37  25  N5      30.01F
PRINEVILLE AP   SUNNY       73  37  27  N7      30.00S
#BEND 1SW       N/A         72  41  33  NE3     N/A
#BEND-AWBREY    N/A         75  46  36  N3      29.91S
#BEND-KIM LN    N/A         73  43  34  NE2     29.99S
#CROOKED RVR RANN/A         73  42  33  NE7     29.90F
#CULVER         N/A         73  39  29  N2      29.96S
#LAKE BILLY CHINN/A         75  -1   5  N1      30.02F
#POWELL BUTTE 3EN/A         69  41  36  NW6     N/A
#POWELL BUTTE   N/A         74  43  33  N7      29.64F
#PRINEVILLE 3N  N/A         73  46  38  W8      29.87F
#WARM SPRINGS   N/A         82  47  29  N2      29.92F

$$


ORZ509-280010-
EAST SLOPES OF OREGON CASCADES

CITY            SKY/WX      TMP DP  RH  WIND    PRES   REMARKS
#BLUE BOX PASS  N/A         67  10  11  NW3     N/A
#CAMP SHERMAN   N/A         77  41  28  N1      29.90F
#LA PINE 4NW    N/A         73  44  35  CALM    29.95S
#SISTERS AIRPOR N/A         73  52  48  N2      30.17S
#SISTERS ODOT   N/A         73  N/A N/A W5      N/A
#SISTERS 3N     N/A         70  45  41  N6      30.01S
#SUNRIVER       N/A         72  42  34  NW3     29.80F
#TUMALO 3W      N/A         71  42  35  NW5     29.80S
#WANOGA BUTTE D N/A         60  36  41  NE7     N/A

$$

ORZ044-280010-
LOWER COLUMBIA BASIN...OREGON

CITY            SKY/WX      TMP DP  RH  WIND    PRES   REMARKS
HERMISTON       SUNNY       79  47  32  CALM    29.93F
#BOARDMAN SCHOOLN/A         79  51  38  NW3     29.94F
#ECHO 8SW       N/A         79  47  32  E3      29.95F
#IONE SCHOOL    N/A         78  43  29  N5      29.92S
#IRRIGON 4NW    N/A         82  49  32  NW3     N/A
#UMATILLA SCHOOLN/A         87  61  42  N3      30.00S
#UMATILLA       N/A         83  50  32  S1      29.84F
$$

ORZ507-280010-
NORTHERN FOOTHILLS OF THE BLUES

CITY            SKY/WX      TMP DP  RH  WIND    PRES   REMARKS
PENDLETON AIRPT MOSUNNY     78  46  32  N12     29.95F
#ADAMS 3WNW     N/A         72  54  53  NE6     29.92F
#ATHENA         N/A         71  50  47  E5      29.96S
#CAYUSE         N/A         69  53  57  E5      29.93S
#HELIX SCHOOL   N/A         71  48  44  CALM    29.92F
#HELIX 3N       N/A         71  46  41  N13     29.95F
#HELIX 6SW      N/A         74  49  41  N6      29.96F
#HOLDMAN 6E     N/A         74  47  38  E2      29.74F
#M-F FERNDALE   N/A         74  50  43  CALM    29.96S
#M-F GROVE ELEM N/A         75  43  32  NE3     29.95F
#M-FREEWATER 5SEN/A         72  49  44  N1      29.97F
#PENDLETON DNTN N/A         79  46  31  W3      29.93F
#PDT AQUATIC CTRN/A         80  53  39  N3      29.98S
#PENDLETON 5NE  N/A         69  54  59  E1      29.93S
#PDT SUNRIDGE   N/A         77  46  33  N1      29.96F
#PENDLETON 7NW  N/A         77  53  43  W1      29.89F
#PILOT ROCK     N/A         72  48  43  N1      29.98F
#TUTUILLA       N/A         72  56  57  E12     29.94F
#UMAPINE 2E     N/A         74  53  48  NE8     29.92F
#WESTON SCHOOL  N/A         68  48  49  S2      29.93S

$$

ORZ508-280010-
SOUTHERN FOOTHILLS OF THE BLUES

CITY            SKY/WX      TMP DP  RH  WIND    PRES   REMARKS
#AJAX           N/A         75  41  29  SW6     29.92F
#CONDON 5W      N/A         70  41  35  NE3     29.99F
#FOSSIL SCHOOL  N/A         72  45  38  N5      29.95S
#HEPPNER EOC    N/A         75  46  36  N3      29.85S
#HEPPNER 4NE    N/A         69  46  44  NW8     29.93S
#LEXINGTON 2SE  N/A         77  47  35  NE3     29.93F
#RUGGS 5NE      N/A         75  45  34  VRB10   30.17S
#RUGGS 2SW      N/A         69  44  40  NE7     29.94F

$$

ORZ502-503-280010-
BLUE MOUNTAINS

CITY            SKY/WX      TMP DP  RH  WIND    PRES   REMARKS
#BATTLE MTN DOT N/A         60  48  64  N2      N/A
#HEPPNER 15SE   N/A         64  46  52  N2      29.95S
#LADD CYN SMT   N/A         67  39  36  NE6     N/A
#LONG CREEK HS  N/A         65  45  48  CALM    29.98F
#N POWDER DOT   N/A         61  48  62  SW8     N/A
#PIKES PEAK     N/A         58  45  62  NE2     27.99S
#TOLLGATE       N/A         54  41  61  CALM    30.01R
#TROY SCHOOL    N/A         65  52  63  S5      29.80S
#UKIAH          N/A         65  48  54  N7      29.98F
#WESTON 4E      N/A         59  52  78  E2      29.90F
$$

ORZ505-280010-
JOHN DAY BASIN

CITY            SKY/WX      TMP DP  RH  WIND    PRES   REMARKS
JOHN DAY        PTCLDY      67  44  43  CALM    30.02S
#JOHN DAY KJDY  N/A         74  48  40  CALM    29.98F
#DAYVILLE SCHOOLN/A         74  41  30  NW6     29.94S
#MITCHELL       N/A         75  50  41  CALM    30.12F
#MONUMENT HS    N/A         74  44  34  VRB2    29.97F
#MT. VERNON 5SE N/A         66  45  47  CALM    29.97F
$$

ORZ506-280010-
OCHOCO AND JOHN DAY HIGHLANDS

CITY            SKY/WX      TMP DP  RH  WIND    PRES   REMARKS
#BUCK CREEK DOT N/A         70  70  100 NW9     N/A
#PAULINA SCHOOL N/A         70  41  35  NE3     29.97F
#PINE MTN OBS   N/A         58  37  45  N8      N/A
#PRAIRIE CITY   N/A         66  47  50  SW1     29.90R
#SENECA         N/A         65  N/A N/A N5      N/A
#SENECA 9NW     N/A         64  42  45  NE1     29.90S
$$

ORZ049-280010-
GRANDE RONDE VALLEY

CITY            SKY/WX      TMP DP  RH  WIND    PRES   REMARKS
LA GRANDE       PTCLDY      66  45  47  N7      30.00R
#COVE           N/A         65  51  60  NW6     30.03R
#COVE SCHOOL    N/A         66  47  50  NW1     29.99R
#ELGIN 3N       N/A         66  50  56  N7      30.00S
#ELGIN 1E       N/A         66  47  50  CALM    N/A
#ISLAND CITY 4N N/A         76  62  62  CALM    29.98F
#LADD CYN DOT   N/A         68  45  44  CALM    N/A
#LA GRANDE ELEM N/A         65  49  56  N1      30.02S
#UNION 1S       N/A         69  48  47  N3      29.84F
$$

ORZ050-280010-
WALLOWA COUNTY

CITY            SKY/WX      TMP DP  RH  WIND    PRES   REMARKS
#ENTERPRISE HS  N/A         62  45  54  CALM    30.04F
#IMNAHA SCHOOL  N/A         69  49  49  S7      29.98F
#IMNAHA 10S     N/A         59  51  75  SW2     30.02F
#JOSEPH 3N      N/A         59  44  57  SW6     30.07F
#JOSEPH 3W      N/A         57  45  64  CALM    29.91F
#LOSTINE        N/A         58  47  67  CALM    29.78F
#MT HOWARD 8000 N/A         39  38  96  NW1     30.16F
#PROMISE 1S     N/A         54  48  80  SE5     30.12R
#SHEEP RDG 7000 N/A         43  36  76  CALM    30.04F
#WALLOWA SCHOOL N/A         62  50  65  NE1     30.88S



$$



USA.gov is the U.S. government's official web portal to all federal, state and local government web resources and services.